Lid_Strength_Index
9 11 13 13 12 12 12 13 12 11 9 11 11 11 10 8 7 8 7 6 6 5 4 3 3 3 3 2 1 2 2 3 3 3 3 3 3 3 3 3 3 4 4 4
10 12 10 10 10 11 11 12 13 11 9 11 12 12 10 8 8 7 7 6 6 5 5 4 3 2 2 3 3 4 3 3 3 3 3 3 3 3 4 4 3 3 4 4
12 11 9 9 10 11 12 11 13 13 10 10 11 13 11 9 7 7 6 6 5 5 5 4 3 5 5 4 4 3 3 4 3 3 3 3 4 4 4 4 4 4 4 4
11 9 9 10 10 10 13 8 10 12 13 16 11 18 13 11 10 8 7 7 6 5 6 6 7 6 5 4 3 3 3 3 3 4 4 5 5 6 5 6 5 5 4 4
10 10 10 10 10 9 11 8 10 11 13 14 14 16 16 11 12 10 8 7 6 7 7 7 6 5 4 3 3 3 3 3 4 5 5 5 6 5 5 5 6 6 5 5
11 9 9 9 8 9 8 9 12 12 12 18 15 16 16 14 12 10 8 7 7 8 7 7 5 5 5 4 4 4 4 4 4 5 5 6 7 7 6 6 6 6 6 6
11 11 9 8 10 10 11 13 16 16 19 20 14 16 15 11 9 8 8 8 8 8 7 6 6 6 5 5 5 4 5 5 5 5 6 6 7 7 7 7 8 7 6 6
14 13 10 9 10 11 12 13 15 18 21 19 14 19 15 9 8 9 9 9 8 8 8 7 6 6 6 6 5 5 5 6 6 6 6 6 7 7 7 8 6 6 6 6
13 12 9 9 9 9 11 13 12 15 15 18 17 15 11 9 10 10 9 9 9 8 7 6 6 6 6 6 6 6 6 6 6 6 6 6 7 7 6 6 6 5 5 5
11 13 9 9 9 9 10 10 13 15 20 23 18 17 16 12 11 10 10 10 9 8 8 7 6 6 6 6 6 5 6 7 7 7 7 6 7 5 5 5 5 5 7 7
10 12 11 10 11 12 11 13 13 14 15 20 21 18 10 11 10 11 10 10 9 9 7 6 6 6 7 6 6 6 7 7 7 7 7 7 6 5 5 5 5 5 5 6
10 12 13 12 9 10 11 12 13 15 16 16 17 17 11 11 10 10 10 9 9 9 6 6 6 7 7 7 6 7 7 7 7 7 7 5 4 5 5 5 5 4 5 5
9 13 15 13 11 10 12 11 12 13 13 16 18 16 11 10 10 10 10 9 9 6 6 6 7 7 7 7 7 7 7 7 7 7 7 6 5 5 5 5 5 4 4 4
8 12 13 15 13 12 12 11 12 12 15 16 15 15 13 12 11 10 9 10 7 7 6 7 8 8 7 7 7 7 7 7 7 7 7 7 6 6 6 6 6 5 4 4
10 13 12 12 10 11 11 10 11 12 12 15 13 13 12 11 11 10 9 7 6 6 6 7 8 8 7 8 7 7 7 7 7 7 6 7 6 5 6 7 7 6 6 5
10 12 13 12 10 10 12 10 10 11 11 11 11 13 11 10 10 9 8 7 7 6 6 7 7 7 7 8 7 7 8 7 7 7 6 6 5 5 6 7 7 6 6 6
10 12 13 14 11 10 13 11 11 11 11 11 14 12 10 10 9 9 9 8 7 6 6 6 7 7 8 8 8 8 8 7 7 7 6 6 5 6 6 6 7 8 7 6
10 12 13 15 13 17 11 9 8 10 11 11 10 10 9 10 9 9 8 8 6 5 6 7 7 7 8 8 8 8 8 7 7 7 7 6 5 6 6 7 7 8 8 7
9 10 13 15 16 13 10 9 10 12 12 10 9 9 10 10 10 10 7 6 6 6 6 7 7 8 8 8 8 8 8 8 7 7 7 6 6 6 6 7 8 8 8 7
9 9 12 14 16 17 11 8 8 10 14 10 9 9 11 11 12 11 8 6 6 6 7 6 7 7 8 8 8 8 8 8 8 8 7 7 6 6 7 7 8 9 9 8
12 12 14 15 15 13 10 7 7 14 13 9 8 9 10 11 10 9 7 7 6 6 6 6 7 8 8 6 8 8 8 9 8 7 7 7 6 7 7 8 8 9 9 9
12 13 14 14 15 16 7 8 11 11 11 8 8 9 10 9 9 8 7 7 5 5 6 6 7 7 6 6 7 8 8 7 7 7 8 7 7 6 6 8 7 7 8 10
13 11 13 12 12 9 9 8 9 10 9 9 8 8 8 8 9 8 8 8 6 6 6 6 7 7 6 5 6 8 8 7 7 8 9 8 7 7 6 6 6 6 6 8
10 9 11 11 10 11 10 9 9 9 7 8 8 8 8 9 8 8 8 8 7 7 7 7 7 7 7 5 6 7 6 7 7 8 9 9 8 8 7 7 6 6 6 7
9 9 11 11 11 10 9 9 8 8 7 7 7 8 8 8 8 8 8 8 7 7 7 7 7 7 6 5 5 6 6 7 8 8 8 9 9 8 6 5 6 6 6 6
8 10 11 11 9 10 9 8 7 7 7 7 7 8 7 8 8 7 8 8 7 7 7 7 5 5 5 5 5 5 6 7 8 9 9 9 9 9 6 6 5 7 7 7